Terminal Aerodrome Forecast
Issued by NWS

Home | Current Version | Previous Version | Text Only | Print | Product List | Glossary On
Versions: 1 2 3 4 5 6 7 8 9 10 11 12 13 14 15 16
000
FTUS44 KEPZ 060541
TAFDMN
TAF
KDMN 060541Z 0606/0706 30008KT P6SM SCT120 BKN250
     FM062000 28011KT P6SM VCTS SCT070CB BKN250
     FM070400 30006KT P6SM SCT100 BKN250=

USA.gov is the U.S. government's official web portal to all federal, state and local government web resources and services.